Weather History for Biloxi, MS

Change the Weather History Date:

Saturday, October 18, 2014

  Actual Average Record
Temperature  
Mean Temperature 73 °F -  
Max Temperature 83 °F 79 °F 86 °F (1962)
Min Temperature 64 °F 59 °F 39 °F (1948)
Cooling Degree Days 8    
Growing Degree Days 23 (Base 50)    
Moisture  
Dew Point 65 °F    
Average Humidity 76    
Maximum Humidity 92    
Minimum Humidity 60    
Precipitation  
Precipitation 0.00 in - - ()
Sea Level Pressure  
Sea Level Pressure 30.00 in    
Wind  
Wind Speed 4 mph (West)    
Max Wind Speed 15 mph    
Max Gust Speed -    
Visibility 10 miles    
Events      
Averages and records for this station are not official NWS values.
T = Trace of Precipitation, MM = Missing Value Source: NWS Daily Summary

Daily Weather History Graph

Daily Weather History Graph

Search for Another Location

Airport:

Trip Planner

Search our weather history database for the weather conditions in past years. The results will help you decide how hot, cold, wet, or windy it might be!

Date:

Astronomy

Oct. 18, 2014 Rise Set
Actual Time 6:59 AM CDT 6:21 PM CDT
Civil Twilight 6:35 AM CDT 6:45 PM CDT
Nautical Twilight 6:07 AM CDT 7:13 PM CDT
Astronomical Twilight 5:39 AM CDT 7:41 PM CDT
Moon 2:18 AM CDT (10/18) 3:23 PM CDT (10/18)
Length of Visible Light 12h 09m
Length of Day
11h 21m
Waning Crescent, 24% of the Moon is Illuminated
Oct 18
Waning Crescent
Oct 23
New
Oct 30
First Quarter
Nov 6
Full
Nov 14
Last Quarter

Hourly Weather History & Observations

Time (CDT) Temp. Heat Index Dew Point Humidity Pressure Visibility Wind Dir Wind Speed Gust Speed Precip Events Conditions
12:58 AM 68.2 °F - 64.8 °F 89% 29.98 in 10.0 mi West 1.2 mph - N/A   Clear
1:58 AM 67.5 °F - 64.0 °F 89% 29.98 in 10.0 mi West 2.3 mph - N/A   Clear
2:58 AM 67.8 °F - 64.4 °F 89% 29.98 in 10.0 mi Variable 1.2 mph - N/A   Clear
3:58 AM 66.2 °F - 63.3 °F 90% 29.98 in 10.0 mi Variable 1.2 mph - N/A   Clear
4:58 AM 65.7 °F - 62.6 °F 90% 30.00 in 10.0 mi Calm Calm - N/A   Clear
5:58 AM 64.8 °F - 62.1 °F 91% 30.01 in 10.0 mi Calm Calm - N/A   Clear
6:58 AM 64.9 °F - 62.4 °F 92% 30.01 in 10.0 mi Variable 2.3 mph - N/A   Partly Cloudy
7:58 AM 66.4 °F - 63.0 °F 89% 30.03 in 10.0 mi Calm Calm - N/A   Mostly Cloudy
8:58 AM 70.2 °F - 64.9 °F 83% 30.04 in 10.0 mi Variable 1.2 mph - N/A   Mostly Cloudy
9:58 AM 74.8 °F - 65.8 °F 73% 30.04 in 10.0 mi NW 2.3 mph - N/A   Partly Cloudy
10:58 AM 79.3 °F - 66.6 °F 65% 30.03 in 10.0 mi Variable 2.3 mph - N/A   Clear
11:58 AM 81.1 °F 83.4 °F 66.7 °F 61% 30.02 in 10.0 mi Variable 3.5 mph - N/A   Scattered Clouds
12:58 PM 81.9 °F 84.2 °F 66.7 °F 60% 30.00 in 10.0 mi WSW 4.6 mph - N/A   Partly Cloudy
1:58 PM 82.6 °F 85.3 °F 67.3 °F 60% 29.98 in 10.0 mi WSW 10.4 mph - N/A   Partly Cloudy
2:58 PM 80.8 °F 83.2 °F 67.3 °F 63% 29.97 in 10.0 mi WSW 12.7 mph - N/A   Partly Cloudy
3:58 PM 81.0 °F 83.8 °F 68.0 °F 65% 29.96 in 10.0 mi WSW 9.2 mph - N/A   Partly Cloudy
4:58 PM 79.9 °F - 66.6 °F 64% 29.96 in 10.0 mi WSW 10.4 mph - N/A   Clear
5:58 PM 77.0 °F - 68.4 °F 75% 29.96 in 10.0 mi SW 10.4 mph - N/A   Clear
6:58 PM 74.8 °F - 68.5 °F 81% 29.97 in 10.0 mi WSW 4.6 mph - N/A   Clear
7:58 PM 74.8 °F - 69.4 °F 83% 29.99 in 10.0 mi Variable 2.3 mph - N/A   Mostly Cloudy
8:58 PM 74.7 °F - 66.7 °F 76% 30.01 in 10.0 mi NNE 8.1 mph - N/A   Scattered Clouds
9:58 PM 74.3 °F - 60.8 °F 63% 30.03 in 10.0 mi NNE 9.2 mph - N/A   Mostly Cloudy
10:58 PM 71.1 °F - 57.6 °F 62% 30.04 in 10.0 mi NNE 15.0 mph - N/A   Clear
11:58 PM 67.8 °F - 56.3 °F 67% 30.05 in 10.0 mi NE 11.5 mph - N/A   Clear